{"data":{"norad_id":51735,"epoch":"2026-05-24T20:03:13.572000Z","epoch_age_seconds":85395,"freshness":"FRESH","line1":"1 51735U 22016X   26144.83557375  .00005401  00000+0  35745-3 0  9998","line2":"2 51735  53.2125 337.2916 0001444  95.2502 264.8655 15.08810741235065","mean_motion":15.08810741,"eccentricity":0.0001444,"inclination_deg":53.2125,"raan_deg":337.2916,"arg_perigee_deg":95.2502,"mean_anomaly_deg":264.8655,"bstar":0.00035745,"rev_number":23506,"period_min":95.439405411815,"perigee_km":538.83386862459,"apogee_km":540.83177830961,"semimajor_km":6917.9698234671,"source":"CELESTRAK","updated_at":"2026-05-25T13:38:16.923747Z"}}